• In Hungary
  • List of Countries
  • For 7 days
  • Water Temperature
  • Satellite Maps
  • Weather Map
  • News
  • Weather Widgets
  • user-avatar
    Login

    Hourly Weather Popova Sloboda

    Today, 22 July, Sunday

    Time Temperature Precipitation Wind Pressure Humidity
    00:00 +20°C° 0 mm 3 mps 742 mmHg 96%
    01:00 +19°C° 0 mm 3 mps 742 mmHg 96%
    02:00 +19°C° 0 mm 4 mps 742 mmHg 97%
    03:00 +19°C° 0 mm 3 mps 741 mmHg 98%
    04:00 +19°C° 0.1 mm 3 mps 742 mmHg 98%
    05:00 +19°C° 0.1 mm 4 mps 742 mmHg 97%
    06:00 +20°C° 0.1 mm 5 mps 742 mmHg 97%
    07:00 +20°C° 0.1 mm 5 mps 742 mmHg 96%
    08:00 +20°C° 0.1 mm 5 mps 742 mmHg 95%
    09:00 +20°C° 0.1 mm 5 mps 742 mmHg 94%
    10:00 +20°C° 0 mm 5 mps 742 mmHg 92%
    11:00 +21°C° 0 mm 5 mps 742 mmHg 91%
    12:00 +21°C° 0 mm 5 mps 742 mmHg 89%
    13:00 +22°C° 0.1 mm 5 mps 742 mmHg 87%
    14:00 +23°C° 0.1 mm 6 mps 742 mmHg 84%
    15:00 +27°C° 0 mm 4 mps 742 mmHg 78%
    16:00 +26°C° 1.1 mm 4 mps 742 mmHg 81%
    17:00 +25°C° 1.1 mm 4 mps 742 mmHg 83%
    18:00 +25°C° 1.1 mm 4 mps 742 mmHg 85%
    19:00 +23°C° 1.2 mm 4 mps 742 mmHg 88%
    20:00 +21°C° 1.2 mm 4 mps 742 mmHg 90%
    21:00 +20°C° 1.2 mm 4 mps 742 mmHg 92%
    22:00 +20°C° 0.2 mm 4 mps 742 mmHg 94%
    23:00 +20°C° 0.2 mm 5 mps 742 mmHg 95%

    Tomorrow, 23 July, Monday

    Time Temperature Precipitation Wind Pressure Humidity
    00:00 +19°C° 0.2 mm 5 mps 742 mmHg 96%
    01:00 +19°C° 0.1 mm 5 mps 742 mmHg 96%
    02:00 +19°C° 0.1 mm 5 mps 742 mmHg 96%
    03:00 +19°C° 0.1 mm 5 mps 742 mmHg 95%
    04:00 +19°C° 0.1 mm 5 mps 742 mmHg 95%
    05:00 +17°C° 0.1 mm 5 mps 742 mmHg 95%
    06:00 +17°C° 0.1 mm 5 mps 742 mmHg 95%
    07:00 +17°C° 0.1 mm 5 mps 742 mmHg 95%
    08:00 +19°C° 0.1 mm 5 mps 742 mmHg 94%
    09:00 +19°C° 0.1 mm 5 mps 742 mmHg 93%
    10:00 +19°C° 0.1 mm 5 mps 742 mmHg 91%
    11:00 +20°C° 0.1 mm 5 mps 743 mmHg 90%
    12:00 +21°C° 0.1 mm 5 mps 743 mmHg 88%
    13:00 +21°C° 0.1 mm 5 mps 743 mmHg 87%
    14:00 +22°C° 0.1 mm 5 mps 743 mmHg 85%
    15:00 +23°C° 0.1 mm 5 mps 743 mmHg 84%
    16:00 +23°C° 0.4 mm 4 mps 743 mmHg 84%
    17:00 +23°C° 0.4 mm 4 mps 742 mmHg 85%
    18:00 +23°C° 0.4 mm 4 mps 742 mmHg 85%
    19:00 +22°C° 0.6 mm 4 mps 742 mmHg 88%
    20:00 +22°C° 0.6 mm 4 mps 743 mmHg 91%
    21:00 +21°C° 0.6 mm 4 mps 743 mmHg 93%
    22:00 +20°C° 1.3 mm 4 mps 743 mmHg 94%
    23:00 +20°C° 1.3 mm 4 mps 743 mmHg 95%

    Day after tomorrow, 24 July, Tuesday

    Time Temperature Precipitation Wind Pressure Humidity
    00:00 +20°C° 1.3 mm 4 mps 743 mmHg 96%
    01:00 +20°C° 0.2 mm 4 mps 743 mmHg 97%
    02:00 +20°C° 0.2 mm 4 mps 743 mmHg 97%
    03:00 +19°C° 0.2 mm 4 mps 743 mmHg 97%
    04:00 +19°C° 0.1 mm 4 mps 743 mmHg 97%
    05:00 +19°C° 0.1 mm 3 mps 744 mmHg 97%
    06:00 +19°C° 0.1 mm 3 mps 744 mmHg 97%
    07:00 +20°C° 0 mm 3 mps 744 mmHg 94%
    08:00 +21°C° 0 mm 3 mps 744 mmHg 91%
    09:00 +22°C° 0 mm 3 mps 745 mmHg 89%
    10:00 +24°C° 0.1 mm 3 mps 745 mmHg 85%
    11:00 +25°C° 0.1 mm 3 mps 745 mmHg 82%
    12:00 +26°C° 0.1 mm 3 mps 745 mmHg 78%
    13:00 +27°C° 0.4 mm 3 mps 745 mmHg 76%
    14:00 +27°C° 0.4 mm 3 mps 745 mmHg 73%
    15:00 +28°C° 0.4 mm 3 mps 745 mmHg 71%
    16:00 +27°C° 0.6 mm 3 mps 746 mmHg 75%
    17:00 +26°C° 0.6 mm 3 mps 746 mmHg 80%
    18:00 +26°C° 0.6 mm 3 mps 746 mmHg 84%
    19:00 +25°C° 0.3 mm 3 mps 746 mmHg 87%
    20:00 +22°C° 0.3 mm 3 mps 746 mmHg 89%
    21:00 +21°C° 0.3 mm 4 mps 747 mmHg 92%
    22:00 +21°C° 0.1 mm 3 mps 747 mmHg 93%
    23:00 +21°C° 0.1 mm 3 mps 747 mmHg 93%

    25 July, Wednesday

    Time Temperature Precipitation Wind Pressure Humidity
    00:00 +20°C° 0.1 mm 3 mps 747 mmHg 93%
    01:00 +20°C° 0.3 mm 3 mps 747 mmHg 93%
    02:00 +20°C° 0.3 mm 4 mps 747 mmHg 92%
    03:00 +20°C° 0.3 mm 4 mps 747 mmHg 92%
    04:00 +20°C° 0.6 mm 4 mps 747 mmHg 91%
    05:00 +20°C° 0.6 mm 5 mps 747 mmHg 89%
    06:00 +19°C° 0.6 mm 5 mps 746 mmHg 88%
    07:00 +20°C° 0.1 mm 6 mps 747 mmHg 84%
    08:00 +20°C° 0.1 mm 6 mps 747 mmHg 81%
    09:00 +21°C° 0.1 mm 6 mps 747 mmHg 78%
    10:00 +21°C° 0 mm 6 mps 747 mmHg 75%
    11:00 +22°C° 0 mm 6 mps 747 mmHg 72%
    12:00 +23°C° 0 mm 7 mps 747 mmHg 70%
    13:00 +23°C° 0.1 mm 7 mps 747 mmHg 69%
    14:00 +24°C° 0.1 mm 7 mps 747 mmHg 69%
    15:00 +24°C° 0.1 mm 7 mps 747 mmHg 69%
    16:00 +24°C° 0.1 mm 6 mps 747 mmHg 72%
    17:00 +23°C° 0.1 mm 6 mps 747 mmHg 75%
    18:00 +23°C° 0.1 mm 5 mps 747 mmHg 78%
    19:00 +22°C° 0.1 mm 5 mps 747 mmHg 78%
    20:00 +22°C° 0.1 mm 5 mps 747 mmHg 78%
    21:00 +21°C° 0.1 mm 5 mps 748 mmHg 78%
    22:00 +20°C° 0 mm 5 mps 748 mmHg 78%
    23:00 +20°C° 0 mm 5 mps 748 mmHg 78%

    26 July, Thursday

    Time Temperature Precipitation Wind Pressure Humidity
    00:00 +19°C° 0 mm 4 mps 748 mmHg 78%
    01:00 +19°C° 0 mm 4 mps 748 mmHg 79%
    02:00 +18°C° 0 mm 4 mps 748 mmHg 79%
    03:00 +18°C° 0 mm 3 mps 748 mmHg 80%
    04:00 +18°C° 0 mm 3 mps 748 mmHg 81%
    05:00 +18°C° 0 mm 3 mps 749 mmHg 82%
    06:00 +18°C° 0 mm 3 mps 749 mmHg 84%
    07:00 +19°C° 0 mm 4 mps 749 mmHg 80%
    08:00 +21°C° 0 mm 4 mps 749 mmHg 77%
    09:00 +22°C° 0 mm 5 mps 749 mmHg 74%
    10:00 +25°C° 0 mm 5 mps 749 mmHg 72%
    11:00 +26°C° 0 mm 5 mps 750 mmHg 71%
    12:00 +27°C° 0 mm 5 mps 750 mmHg 69%
    13:00 +28°C° 0 mm 5 mps 750 mmHg 67%
    14:00 +29°C° 0 mm 5 mps 750 mmHg 66%
    15:00 +29°C° 0 mm 5 mps 750 mmHg 65%
    16:00 +29°C° 0 mm 5 mps 750 mmHg 67%
    17:00 +28°C° 0 mm 5 mps 750 mmHg 70%
    18:00 +28°C° 0 mm 4 mps 750 mmHg 72%
    19:00 +27°C° 0.1 mm 4 mps 750 mmHg 74%
    20:00 +25°C° 0.1 mm 4 mps 751 mmHg 75%
    21:00 +23°C° 0.1 mm 4 mps 751 mmHg 77%
    22:00 +23°C° 0.1 mm 4 mps 751 mmHg 78%
    23:00 +23°C° 0.1 mm 4 mps 751 mmHg 80%

    27 July, Friday

    Time Temperature Precipitation Wind Pressure Humidity
    00:00 +23°C° 0.1 mm 4 mps 751 mmHg 81%
    01:00 +22°C° 0 mm 4 mps 751 mmHg 82%
    02:00 +22°C° 0 mm 4 mps 751 mmHg 84%
    03:00 +21°C° 0 mm 4 mps 751 mmHg 85%
    04:00 +21°C° 0 mm 4 mps 752 mmHg 84%
    05:00 +21°C° 0 mm 3 mps 752 mmHg 84%
    06:00 +21°C° 0 mm 3 mps 752 mmHg 84%
    07:00 +22°C° 0 mm 4 mps 752 mmHg 80%
    08:00 +23°C° 0 mm 4 mps 752 mmHg 76%
    09:00 +25°C° 0 mm 4 mps 752 mmHg 73%
    10:00 +27°C° 0 mm 4 mps 753 mmHg 69%
    11:00 +28°C° 0 mm 5 mps 753 mmHg 65%
    12:00 +29°C° 0 mm 5 mps 753 mmHg 61%
    13:00 +30°C° 0 mm 5 mps 753 mmHg 59%
    14:00 +30°C° 0 mm 5 mps 752 mmHg 57%
    15:00 +30°C° 0 mm 5 mps 752 mmHg 56%
    16:00 +30°C° 0 mm 4 mps 752 mmHg 60%
    17:00 +29°C° 0 mm 4 mps 752 mmHg 65%
    18:00 +29°C° 0 mm 3 mps 752 mmHg 69%
    19:00 +27°C° 0 mm 3 mps 752 mmHg 71%
    20:00 +26°C° 0 mm 3 mps 753 mmHg 73%
    21:00 +24°C° 0 mm 3 mps 753 mmHg 76%
    22:00 +24°C° 0 mm 3 mps 753 mmHg 76%
    23:00 +22°C° 0 mm 3 mps 753 mmHg 76%
    Show more